Regional Weather Roundup
Issued by NWS Mobile, AL

Home | Current Version | Previous Version | Text Only | Print | Product List | Glossary On
Versions: 1 2 3 4 5 6 7 8 9 10 11 12 13 14 15 16 17 18 19 20 21 22 23 24 25 26 27 28 29 30 31 32 33 34 35 36 37 38 39 40 41 42 43 44 45 46 47 48 49 50
511
ASUS44 KMOB 270112
RWRMOB
REGIONAL WEATHER ROUNDUP
NATIONAL WEATHER SERVICE MOBILE AL
800 PM CDT TUE JUL 26 2016

NOTE: "FAIR" INDICATES FEW OR NO CLOUDS BELOW 12,000 FEET WITH NO
      SIGNIFICANT WEATHER AND/OR OBSTRUCTIONS TO VISIBILITY.

  * THESE STATIONS ARE PART OF THE UNIVERSITY OF SOUTH ALABAMA
    MESONET AND ARE NOT UNDER NWS OR FAA QUALITY CONTROL.

ALZ061>064-270200-
COASTAL ALABAMA

CITY           SKY/WX    TMP DP  RH WIND       PRES   REMARKS
MOBILE REG APT CLOUDY    77  75  93 SW6       29.98R
BROOKLEY FIELD CLOUDY    79  77  94 VRB3      29.98R
USA CAMPUS*    NOT AVBL
DOG RIVER*     NOT AVBL


CITY           SKY/WX    TMP DP  RH WIND       PRES   REMARKS
MOUNT VERNON*  NOT AVBL
SARALAND*      NOT AVBL
BAY MINETTE*   NOT AVBL
LOXLEY*        NOT AVBL
ROBERTSDALE*   NOT AVBL
FAIRHOPE*      NOT AVBL
ELBERTA*       NOT AVBL
FOLEY*         NOT AVBL
GRAND BAY*     NOT AVBL
DAUPHIN ISLND* NOT AVBL
BON SCOUR NWR* NOT AVBL
GULF SHORES    CLOUDY    80  74  83 SW14G23   29.98S

$$

ALZ051>060-270200-
INTERIOR SOUTHWEST AND SOUTH CENTRAL ALABAMA

CITY           SKY/WX    TMP DP  RH WIND       PRES   REMARKS
GREENVILLE     NOT AVBL
EVERGREEN      PTCLDY    78  75  90 S3        30.00R
CASTLEBERRY*   NOT AVBL
ATMORE*        NOT AVBL
DIXIE*         NOT AVBL
ANDALUSIA/OPP  CLOUDY    82  75  79 S3        30.01R
ANDALUSIA*     NOT AVBL
FLORALA APT    CLOUDY    77  74  90 S5        30.03S
FLORALA*       NOT AVBL

$$

FLZ001>006-270200-
WESTERN FLORIDA PANHANDLE

CITY           SKY/WX    TMP DP  RH WIND       PRES   REMARKS
PENSACOLA      LGT RAIN  79  75  87 SW12G22   29.99R
NAS PENSACOLA  CLOUDY    81  73  76 SW14G25   29.98S
MILTON         LGT RAIN  79  76  90 SW9       30.00R
WHTNG S FIELD  LGT RAIN  81  77  88 VRB5      30.00R


CITY           SKY/WX    TMP DP  RH WIND       PRES   REMARKS
WALNUT HILL*   NOT AVBL
JAY*           NOT AVBL
DUKE FIELD     PTCLDY    79  75  89 S6        30.02R
CRESTVIEW      LGT RAIN  79  74  84 S8        30.03R
VALPARAISO     PTCLDY    79  74  83 SW5       30.01S
DESTIN         CLOUDY    83  76  79 VRB5      30.01S

$$

MSZ076-079-270200-
INTERIOR SOUTHEAST MISSISSIPPI

CITY           SKY/WX    TMP DP  RH WIND       PRES   REMARKS
LEAKESVILLE*   NOT AVBL
AGRICOLA*      NOT AVBL

$$

MARINE OBSERVATIONS

STATION/POSITION TIME  TEMP    WIND        PRES    WAVE
                       AIR SEA DIR/SP/G            HT/PER
                 (UTC) (F)     (DEG/KT/KT) (MB)    (FT/S)
PASCAGOULA       0012   80                   N/A
PETIT BOIS ISLND 0012   80                   N/A
GRAND BAY        2300   81     240/ 13     1015.0S
KATRINA CUT      0000   81     240/ 28     1014.9R
CEDAR POINT      0000   82     230/ 27     1014.6R
E DAUPHIN ISLAND 0000   82     230/ 16/ 22 1014.4R
MIDDLE BAY LIGHT 0000   83     220/ 31     1014.6R
USCG MOBILE BAY  0000      87                N/A
STATE DOCKS      0000      88                N/A
MEAHER PARK      0000   82     220/ 14     1014.9R
WEEKS BAY        2300   83                   N/A
FORT MORGAN      0012   82                   N/A
12 S ORANGE BCH  0050   82 87  230/ 23/ 27 1015.3R   7/ 7
PENSACOLA BAY    0000      87                N/A
64 S DAUPHIN ISL 0000   81 87  250/ 19/ 25 1015.4F
67 S FORT MORGAN 0030   80     250/ 16     1016.3R

$$

SELECTED LOCATIONS ACROSS THE REGION

CITY           SKY/WX    TMP DP  RH WIND       PRES   REMARKS
NEW ORLEANS    CLOUDY    79  75  87 S10       29.94S
GULFPORT       MOCLDY    77  76  96 W3        29.94S
PASCAGOULA AP  CLOUDY    78  78 100 W5        29.95S
PASCAGOULA*    NOT AVBL
HATTIESBURG    CLOUDY    79  76  90 SW6       29.95R
LAUREL         CLOUDY    75  73  94 S5        29.95S
MERIDIAN       CLOUDY    82  76  81 SE5       29.93F
JACKSON        CLOUDY    79  76  90 SW5       29.93S
MONTGOMERY     PTCLDY    79  75  87 CALM      29.99S
TROY           MOCLDY    78  76  93 S3        30.02R
KINSTON*       NOT AVBL
GENEVA*        NOT AVBL
ASHFORD*       NOT AVBL
DOTHAN         CLOUDY    79  75  87 S6        30.06S
PANAMA CITY    MOCLDY    82  73  74 S8        30.01R

$$





USA.gov is the U.S. government's official web portal to all federal, state and local government web resources and services.